Szolnok, Hungary

6:30 AM CET on December 08, 2016 (GMT +0100)
Szolnok

Weather History for LHSN - February, 2013

Change the Weather History Date:

Wednesday, February 13, 2013

  Actual Average (LHBP) Record (LHBP)
Temperature  
Mean Temperature 38 °F -  
Max Temperature 44 °F 40 °F 59 °F (1998)
Min Temperature 33 °F 25 °F 5 °F (2003)
Degree Days  
Heating Degree Days 26    
Moisture  
Dew Point 32 °F    
Average Humidity 77    
Maximum Humidity 87    
Minimum Humidity 61    
Precipitation  
Precipitation 0.00 in - - ()
Sea Level Pressure  
Sea Level Pressure 29.93 in    
Wind  
Wind Speed 7 mph ()    
Max Wind Speed 13 mph    
Max Gust Speed -    
Visibility 4.0 miles    
Events Rain    
Averages and records for this station are not official NWS values.
T = Trace of Precipitation, MM = Missing Value Source: Averaged Metar Reports

Daily Weather History Graph

Daily Weather History Graph

Search for Another Location

Airport or City:

Trip Planner

Search our weather history database for the weather conditions in past years. The results will help you decide how hot, cold, wet, or windy it might be!

Date:

Astronomy

Feb. 13, 2013 Rise Set
Actual Time 6:47 AM CET 5:00 PM CET
Civil Twilight 6:15 AM CET 5:31 PM CET
Nautical Twilight 5:39 AM CET 6:07 PM CET
Astronomical Twilight 5:04 AM CET 6:42 PM CET
Moon 7:49 AM CET (2/13) 9:03 PM CET (2/13)
Length of Visible Light 11h 16m
Length of Day
10h 13m
Waxing Crescent, 12% of the Moon is Illuminated
Feb 13
Waxing Crescent
Feb 17
First Quarter
Feb 25
Full
Mar 4
Last Quarter
Mar 11
New

Hourly Weather History & Observations

Time (CET) Temp. Windchill Dew Point Humidity Pressure Visibility Wind Dir Wind Speed Gust Speed Precip Events Conditions
12:15 AM 35.6 °F 28.7 °F 30.2 °F 81% 29.86 in - ENE 8.9 mph - N/A   Clear
12:45 AM 33.8 °F 27.9 °F 30.2 °F 87% 29.86 in - ENE 6.7 mph - N/A   Clear
1:15 AM 33.8 °F 27.9 °F 30.2 °F 87% 29.89 in - ENE 6.7 mph - N/A   Clear
1:45 AM 35.6 °F 31.8 °F 30.2 °F 81% 29.89 in - ENE 4.5 mph - N/A   Clear
2:15 AM 35.6 °F 31.8 °F 30.2 °F 81% 29.89 in - ENE 4.5 mph - N/A   Clear
2:45 AM 35.6 °F 31.8 °F 30.2 °F 81% 29.89 in - ENE 4.5 mph - N/A   Clear
3:15 AM 35.6 °F 30.0 °F 30.2 °F 81% 29.89 in - ENE 6.7 mph - N/A   Clear
3:45 AM 35.6 °F 31.8 °F 30.2 °F 81% 29.89 in - ENE 4.5 mph - N/A   Clear
4:15 AM 35.6 °F 30.0 °F 30.2 °F 81% 29.89 in 5.0 mi East 6.7 mph - N/A   Unknown
4:45 AM 35.6 °F 30.0 °F 30.2 °F 81% 29.89 in - East 6.7 mph - N/A   Clear
5:15 AM 35.6 °F 30.0 °F 30.2 °F 81% 29.89 in - East 6.7 mph - N/A   Clear
5:45 AM - - - N/A% - 3.7 mi NE 8.9 mph - N/A Rain Light Rain
6:15 AM 35.6 °F 28.7 °F 30.2 °F 81% 29.89 in - East 8.9 mph - N/A   Clear
6:45 AM 33.8 °F 27.9 °F 30.2 °F 87% 29.92 in - East 6.7 mph - N/A   Clear
7:15 AM 35.6 °F 28.7 °F 30.2 °F 81% 29.92 in - ENE 8.9 mph - N/A   Clear
7:45 AM 33.8 °F 26.5 °F 30.2 °F 87% 29.92 in - ENE 8.9 mph - N/A   Clear
8:15 AM 35.6 °F 30.0 °F 30.2 °F 81% 29.92 in - ENE 6.7 mph - N/A   Clear
8:45 AM - - - N/A% - 3.7 mi NE 8.9 mph - N/A Rain Light Rain
9:15 AM 37.4 °F 32.2 °F 32.0 °F 81% 29.92 in - NE 6.7 mph - N/A   Clear
9:45 AM 37.4 °F 32.2 °F 32.0 °F 81% 29.95 in - NE 6.7 mph - N/A   Clear
10:15 AM 37.4 °F 30.9 °F 32.0 °F 81% 29.95 in - NE 8.9 mph - N/A   Clear
10:45 AM 37.4 °F 30.9 °F 32.0 °F 81% 29.95 in - NE 8.9 mph - N/A   Clear
11:15 AM 37.4 °F 30.9 °F 32.0 °F 81% 29.95 in - NE 8.9 mph - N/A   Clear
11:28 AM 37.4 °F 30.9 °F 32.0 °F 81% 29.95 in 5.0 mi NE 8.9 mph - N/A Rain Light Rain Showers
11:45 AM - - - N/A% - 3.7 mi NE 8.9 mph - N/A Rain Light Rain
12:11 PM 41.0 °F 35.4 °F 33.8 °F 76% 29.92 in 5.0 mi NE 8.9 mph - N/A   Unknown
12:15 PM 41.0 °F 34.4 °F 33.8 °F 76% 29.92 in - NNE 11.2 mph - N/A   Clear
12:45 PM 42.8 °F 37.6 °F 33.8 °F 70% 29.95 in - NNE 8.9 mph - N/A   Clear
1:15 PM 44.6 °F 40.8 °F 35.6 °F 71% 29.95 in - NNE 6.7 mph - N/A   Clear
1:45 PM 44.6 °F 40.8 °F 33.8 °F 66% 29.92 in - NNE 6.7 mph - N/A   Clear
2:15 PM 44.6 °F 39.8 °F 33.8 °F 66% 29.92 in - NE 8.9 mph - N/A   Clear
2:45 PM - - - N/A% - 3.7 mi NE 8.9 mph - N/A Rain Light Rain
3:15 PM 44.6 °F 40.8 °F 35.6 °F 71% 29.95 in - North 6.7 mph - N/A   Clear
3:45 PM 44.6 °F 40.8 °F 35.6 °F 71% 29.95 in - NNE 6.7 mph - N/A   Clear
4:15 PM 44.6 °F 40.8 °F 35.6 °F 71% 29.92 in - NNE 6.7 mph - N/A   Clear
4:45 PM 42.8 °F 38.7 °F 35.6 °F 76% 29.95 in - North 6.7 mph - N/A   Clear
5:15 PM 42.8 °F 38.7 °F 35.6 °F 76% 29.95 in - North 6.7 mph - N/A   Clear
5:45 PM - - - N/A% - 3.7 mi NNE 6.7 mph - N/A Rain Light Rain
6:15 PM 41.0 °F 36.5 °F 33.8 °F 76% 29.95 in - NNW 6.7 mph - N/A   Clear
6:45 PM 41.0 °F 36.5 °F 33.8 °F 76% 29.95 in - North 6.7 mph - N/A   Clear
7:15 PM 42.8 °F 36.7 °F 32.0 °F 66% 29.95 in - NNE 11.2 mph - N/A   Clear
7:45 PM 42.8 °F 36.7 °F 30.2 °F 61% 29.95 in - NNE 11.2 mph - N/A   Clear
8:15 PM 42.8 °F 35.9 °F 30.2 °F 61% 29.95 in - NNE 13.4 mph - N/A   Clear
8:45 PM - - - N/A% - 3.7 mi NNE 6.7 mph - N/A Rain Light Rain
9:15 PM 41.0 °F 34.4 °F 32.0 °F 70% 29.98 in - NE 11.2 mph - N/A   Clear
9:45 PM 41.0 °F 33.6 °F 32.0 °F 70% 29.98 in - NE 13.4 mph - N/A   Clear
10:15 PM 41.0 °F 33.6 °F 32.0 °F 70% 29.98 in - ENE 13.4 mph - N/A   Clear
10:45 PM 41.0 °F 33.6 °F 32.0 °F 70% 29.98 in - ENE 13.4 mph - N/A   Clear
11:15 PM 39.2 °F 32.2 °F 32.0 °F 75% 30.01 in 6.2 mi ENE 11.2 mph - N/A Rain Light Rain Showers
11:41 PM 39.2 °F 33.1 °F 32.0 °F 75% 30.01 in - ENE 8.9 mph - N/A   Clear
11:45 PM - - - N/A% - 0.9 mi North - - N/A Rain Light Rain